• In Austria
  • List of Countries
  • For 7 days
  • Water Temperature
  • Satellite Maps
  • Weather Map
  • News
  • Weather Widgets
  • user-avatar
    Login

    Hourly Weather La Massana

    Today, 21 June, Thursday

    Time Temperature Precipitation Wind Pressure Humidity
    00:00 +12°C° 0 mm 1 mps 615 mmHg 79%
    01:00 +11°C° 0 mm 1 mps 615 mmHg 80%
    02:00 +11°C° 0 mm 1 mps 615 mmHg 81%
    03:00 +11°C° 0 mm 1 mps 615 mmHg 82%
    04:00 +12°C° 0 mm 1 mps 615 mmHg 81%
    05:00 +13°C° 0 mm 1 mps 616 mmHg 79%
    06:00 +14°C° 0 mm 1 mps 616 mmHg 75%
    07:00 +16°C° 0 mm 1 mps 617 mmHg 67%
    08:00 +19°C° 0 mm 1 mps 617 mmHg 59%
    09:00 +21°C° 0 mm 1 mps 618 mmHg 51%
    10:00 +21°C° 0.1 mm 1 mps 618 mmHg 50%
    11:00 +22°C° 0.1 mm 1 mps 618 mmHg 49%
    12:00 +22°C° 0.1 mm 1 mps 618 mmHg 47%
    13:00 +22°C° 0.2 mm 1 mps 618 mmHg 51%
    14:00 +21°C° 0.2 mm 1 mps 617 mmHg 55%
    15:00 +20°C° 0.2 mm 1 mps 617 mmHg 59%
    16:00 +20°C° 0.2 mm 1 mps 617 mmHg 64%
    17:00 +19°C° 0.2 mm 1 mps 616 mmHg 69%
    18:00 +17°C° 0.2 mm 2 mps 616 mmHg 74%
    19:00 +16°C° 0.1 mm 2 mps 615 mmHg 79%
    20:00 +15°C° 0.1 mm 2 mps 615 mmHg 83%
    21:00 +13°C° 0.1 mm 2 mps 615 mmHg 87%
    22:00 +13°C° 0 mm 2 mps 615 mmHg 87%
    23:00 +13°C° 0 mm 2 mps 615 mmHg 87%

    Tomorrow, 22 June, Friday

    Time Temperature Precipitation Wind Pressure Humidity
    00:00 +12°C° 0 mm 2 mps 614 mmHg 87%
    01:00 +12°C° 0 mm 2 mps 614 mmHg 87%
    02:00 +10°C° 0 mm 2 mps 614 mmHg 87%
    03:00 +10°C° 0 mm 2 mps 614 mmHg 87%
    04:00 +12°C° 0 mm 2 mps 614 mmHg 85%
    05:00 +12°C° 0 mm 2 mps 614 mmHg 84%
    06:00 +13°C° 0 mm 2 mps 615 mmHg 82%
    07:00 +15°C° 0 mm 2 mps 616 mmHg 74%
    08:00 +16°C° 0 mm 2 mps 616 mmHg 67%
    09:00 +18°C° 0 mm 2 mps 617 mmHg 59%
    10:00 +19°C° 0 mm 2 mps 617 mmHg 56%
    11:00 +20°C° 0 mm 2 mps 617 mmHg 53%
    12:00 +21°C° 0 mm 2 mps 618 mmHg 50%
    13:00 +20°C° 0.4 mm 2 mps 617 mmHg 55%
    14:00 +19°C° 0.4 mm 2 mps 617 mmHg 59%
    15:00 +18°C° 0.4 mm 2 mps 616 mmHg 64%
    16:00 +17°C° 0.5 mm 2 mps 616 mmHg 69%
    17:00 +16°C° 0.5 mm 2 mps 615 mmHg 74%
    18:00 +15°C° 0.5 mm 2 mps 615 mmHg 79%
    19:00 +14°C° 0.1 mm 2 mps 615 mmHg 83%
    20:00 +13°C° 0.1 mm 2 mps 615 mmHg 87%
    21:00 +12°C° 0.1 mm 2 mps 615 mmHg 91%
    22:00 +10°C° 0 mm 2 mps 615 mmHg 91%
    23:00 +11°C° 0 mm 1 mps 615 mmHg 91%

    Day after tomorrow, 23 June, Saturday

    Time Temperature Precipitation Wind Pressure Humidity
    00:00 +10°C° 0 mm 1 mps 614 mmHg 92%
    01:00 +10°C° 0 mm 1 mps 614 mmHg 91%
    02:00 +10°C° 0 mm 1 mps 614 mmHg 91%
    03:00 +9°C° 0 mm 1 mps 614 mmHg 90%
    04:00 +10°C° 0 mm 1 mps 614 mmHg 87%
    05:00 +11°C° 0 mm 1 mps 615 mmHg 84%
    06:00 +12°C° 0 mm 1 mps 615 mmHg 81%
    07:00 +14°C° 0 mm 1 mps 616 mmHg 73%
    08:00 +15°C° 0 mm 1 mps 617 mmHg 65%
    09:00 +18°C° 0 mm 1 mps 618 mmHg 58%
    10:00 +19°C° 0.1 mm 1 mps 618 mmHg 56%
    11:00 +19°C° 0.1 mm 1 mps 618 mmHg 55%
    12:00 +19°C° 0.1 mm 2 mps 618 mmHg 54%
    13:00 +19°C° 0.2 mm 1 mps 618 mmHg 55%
    14:00 +19°C° 0.2 mm 1 mps 617 mmHg 55%
    15:00 +19°C° 0.2 mm 1 mps 617 mmHg 56%
    16:00 +19°C° 0.2 mm 1 mps 616 mmHg 59%
    17:00 +18°C° 0.2 mm 1 mps 616 mmHg 62%
    18:00 +16°C° 0.2 mm 1 mps 616 mmHg 66%
    19:00 +15°C° 0.1 mm 1 mps 615 mmHg 71%
    20:00 +13°C° 0.1 mm 1 mps 615 mmHg 77%
    21:00 +11°C° 0.1 mm 1 mps 614 mmHg 83%
    22:00 +11°C° 0 mm 1 mps 614 mmHg 84%
    23:00 +11°C° 0 mm 1 mps 614 mmHg 85%

    24 June, Sunday

    Time Temperature Precipitation Wind Pressure Humidity
    00:00 +10°C° 0 mm 1 mps 614 mmHg 86%
    01:00 +10°C° 0 mm 1 mps 613 mmHg 87%
    02:00 +10°C° 0 mm 1 mps 613 mmHg 88%
    03:00 +10°C° 0 mm 1 mps 613 mmHg 88%
    04:00 +11°C° 0 mm 1 mps 613 mmHg 86%
    05:00 +12°C° 0 mm 1 mps 614 mmHg 84%
    06:00 +13°C° 0 mm 1 mps 614 mmHg 82%
    07:00 +15°C° 0 mm 1 mps 615 mmHg 70%
    08:00 +18°C° 0 mm 1 mps 616 mmHg 59%
    09:00 +20°C° 0 mm 1 mps 617 mmHg 48%
    10:00 +21°C° 0 mm 1 mps 617 mmHg 44%
    11:00 +20°C° 0 mm 2 mps 617 mmHg 40%
    12:00 +21°C° 0 mm 2 mps 617 mmHg 36%
    13:00 +21°C° 0 mm 2 mps 617 mmHg 36%
    14:00 +21°C° 0 mm 2 mps 616 mmHg 36%
    15:00 +21°C° 0 mm 2 mps 616 mmHg 37%
    16:00 +20°C° 0 mm 2 mps 615 mmHg 43%
    17:00 +19°C° 0 mm 2 mps 615 mmHg 50%
    18:00 +18°C° 0 mm 2 mps 614 mmHg 56%
    19:00 +15°C° 0 mm 2 mps 614 mmHg 63%
    20:00 +13°C° 0 mm 2 mps 613 mmHg 69%
    21:00 +10°C° 0 mm 2 mps 613 mmHg 76%
    22:00 +11°C° 0 mm 1 mps 612 mmHg 73%
    23:00 +10°C° 0 mm 1 mps 612 mmHg 70%

    25 June, Monday

    Time Temperature Precipitation Wind Pressure Humidity
    00:00 +10°C° 0 mm 1 mps 612 mmHg 67%
    01:00 +10°C° 0 mm 1 mps 612 mmHg 64%
    02:00 +9°C° 0 mm 1 mps 612 mmHg 62%
    03:00 +9°C° 0 mm 1 mps 611 mmHg 59%
    04:00 +10°C° 0 mm 1 mps 612 mmHg 58%
    05:00 +11°C° 0 mm 1 mps 612 mmHg 57%
    06:00 +12°C° 0 mm 1 mps 613 mmHg 56%
    07:00 +14°C° 0 mm 1 mps 614 mmHg 51%
    08:00 +16°C° 0 mm 1 mps 615 mmHg 45%
    09:00 +19°C° 0 mm 1 mps 616 mmHg 40%
    10:00 +20°C° 0 mm 1 mps 616 mmHg 39%
    11:00 +21°C° 0 mm 1 mps 616 mmHg 38%
    12:00 +21°C° 0 mm 2 mps 617 mmHg 37%
    13:00 +21°C° 0 mm 2 mps 616 mmHg 39%
    14:00 +21°C° 0 mm 2 mps 616 mmHg 41%
    15:00 +20°C° 0 mm 2 mps 616 mmHg 43%
    16:00 +20°C° 0 mm 1 mps 615 mmHg 50%
    17:00 +19°C° 0 mm 1 mps 615 mmHg 57%
    18:00 +18°C° 0 mm 1 mps 614 mmHg 64%
    19:00 +15°C° 0.1 mm 1 mps 614 mmHg 70%
    20:00 +13°C° 0.1 mm 1 mps 614 mmHg 77%
    21:00 +11°C° 0.1 mm 1 mps 613 mmHg 84%
    22:00 +11°C° 0 mm 1 mps 613 mmHg 84%
    23:00 +11°C° 0 mm 1 mps 613 mmHg 85%

    26 June, Tuesday

    Time Temperature Precipitation Wind Pressure Humidity
    00:00 +10°C° 0 mm 1 mps 613 mmHg 86%
    01:00 +10°C° 0 mm 1 mps 613 mmHg 86%
    02:00 +10°C° 0 mm 1 mps 612 mmHg 86%
    03:00 +10°C° 0 mm 1 mps 612 mmHg 86%
    04:00 +11°C° 0 mm 1 mps 613 mmHg 83%
    05:00 +11°C° 0 mm 1 mps 613 mmHg 81%
    06:00 +12°C° 0 mm 1 mps 614 mmHg 79%
    07:00 +14°C° 0 mm 1 mps 614 mmHg 70%
    08:00 +16°C° 0 mm 1 mps 615 mmHg 61%
    09:00 +19°C° 0 mm 1 mps 616 mmHg 52%
    10:00 +19°C° 0 mm 1 mps 616 mmHg 52%
    11:00 +19°C° 0 mm 2 mps 616 mmHg 51%
    12:00 +19°C° 0 mm 2 mps 616 mmHg 51%
    13:00 +19°C° 0.1 mm 2 mps 616 mmHg 53%
    14:00 +18°C° 0.1 mm 2 mps 616 mmHg 55%
    15:00 +18°C° 0.1 mm 2 mps 615 mmHg 57%
    16:00 +18°C° 0.1 mm 2 mps 615 mmHg 61%
    17:00 +17°C° 0.1 mm 2 mps 615 mmHg 65%
    18:00 +16°C° 0.1 mm 1 mps 615 mmHg 68%
    19:00 +15°C° 0 mm 1 mps 614 mmHg 74%
    20:00 +13°C° 0 mm 1 mps 614 mmHg 80%
    21:00 +12°C° 0 mm 1 mps 614 mmHg 86%
    22:00 +11°C° 0 mm 1 mps 614 mmHg 86%
    23:00 +11°C° 0 mm 1 mps 613 mmHg 87%
    Show more